« Back
NWS Peachtree City, Ga » Text Product » GA Regional Weather Roundup


Printer-friendly Version
Current Version              Previous Versions:   1  2  3  4  5  6  7  8  9  

Regional Weather Roundup

836
ASUS42 KFFC 070703
RWRGA
WEATHER ROUNDUP FOR GEORGIA
NATIONAL WEATHER SERVICE PEACHTREE CITY GA
300 AM EDT TUE JUL 07 2015

NOTE: "FAIR" INDICATES FEW OR NO CLOUDS BELOW 12,000 FEET WITH NO
SIGNIFICANT WEATHER AND/OR OBSTRUCTIONS TO VISIBILITY.

* = USE WITH CAUTION. THE STATIONS MARKED WITH AN ASTERISK MAY NOT
REPORT WEATHER SUCH AS PRECIPITATION, FOG, OR THUNDER AND ARE NOT
QUALITY CONTROLLED BY NWS.

THE REMARK "TC" DENOTES TEMPERATURE READING IN DEGREES CELSIUS.

GAZ001>058-070800-
NORTH GEORGIA

CITY           SKY/WX    TMP DP  RH WIND       PRES   REMARKS
ATLANTA        CLEAR     72  68  87 W5        30.14S
ATHENS         CLEAR     73  70  90 NW6       30.12S
CHAMBLEE       CLEAR     71  69  93 CALM      30.13F
PEACHTREE CITY CLEAR     70  68  93 CALM      30.14S
ROME           CLEAR     70  69  97 CALM      30.11F
WEST ATLANTA   CLEAR     72  69  90 CALM      30.13S
GAINESVILLE    CLEAR     73  69  87 W7        30.16S
CARTERSVILLE   CLEAR     68  67  96 CALM      30.13F FOG


CITY           SKY/WX    TMP DP  RH WIND       PRES   REMARKS
DALTON*        CLEAR     70  70 100 CALM      30.12F
MARIETTA       CLEAR     71  69  93 W7        30.13F
BLAIRSVILLE*   HAZE      65  58  77 CALM      30.19F VSB<1/4
$$

GAZ059>098-102>109-070800-
CENTRAL GEORGIA

CITY           SKY/WX    TMP DP  RH WIND       PRES   REMARKS
AUGUSTA-BUSH   MOCLDY    72  70  93 CALM      30.09S
AUGUSTA-DANIEL CLEAR     77  70  79 CALM      30.11R
COLUMBUS       CLEAR     73  70  90 CALM      30.12S
MACON          CLEAR     71  69  93 CALM      30.11S
ROBINS AFB     CLEAR     72  71  98 CALM      30.11R


CITY           SKY/WX    TMP DP  RH WIND       PRES   REMARKS
LAGRANGE*      CLEAR     71  71 100 CALM      30.13S
SYLVANIA*      PTCLDY    75  74  98 CALM      30.11S
MILLEDGEVILLE* CLEAR     73  70  88 CALM      30.11S
$$

GAZ099>101-110>166-070800-
SOUTH GEORGIA

CITY           SKY/WX    TMP DP  RH WIND       PRES   REMARKS
SAVANNAH       PTCLDY    73  70  90 W3        30.11S
VALDOSTA       CLEAR     73  72  96 CALM      30.11S
ALMA           PTCLDY    72  71  97 CALM      30.11S
ST SIMONS      MOCLDY    76  71  85 SW9       30.10S
FT STEWART     MOCLDY    74  71  91 SW3       30.09S
ALBANY         CLEAR     72  70  93 CALM      30.14R
HUNTER AFB     PTCLDY    73  73 100 W2        30.08S
MOODY AFB      CLEAR     74  71  90 CALM      30.11R
BRUNSWICK      MOCLDY    73  72  94 SW3       30.11S


CITY           SKY/WX    TMP DP  RH WIND       PRES   REMARKS
BAINBRIDGE*    CLEAR     77  73  88 CALM      30.11S
MOULTRIE*      CLEAR     73  72  94 CALM      30.12S
VIDALIA*       PTCLDY    73  70  88 CALM      30.12R
WAYCROSS*      PTCLDY    76  75  96 S3        30.11S
DOUGLAS*       CLEAR     75  72  88 CALM      30.13S
$$



USA.gov is the U.S. government's official web portal to all federal, state and local government web resources and services.